TimeEEST,TemperatureF,Dew PointF,Humidity,Sea Level PressureIn,VisibilityMPH,Wind Direction,Wind SpeedMPH,Gust SpeedMPH,PrecipitationIn,Events,Conditions,WindDirDegrees,DateUTC
12:50 AM,78.8,46.4,32,29.92,-9999.0,NW,9.2,-,N/A,,Clear,320,2013-08-05 21:50:00
1:50 AM,77.0,48.2,36,29.92,-9999.0,Calm,Calm,-,N/A,,Clear,0,2013-08-05 22:50:00
2:50 AM,75.2,50.0,41,29.92,-9999.0,Calm,Calm,-,N/A,,Clear,0,2013-08-05 23:50:00
3:50 AM,77.0,51.8,41,29.89,-9999.0,Calm,Calm,-,N/A,,Clear,0,2013-08-06 00:50:00
4:50 AM,78.8,51.8,39,29.89,-9999.0,NNW,6.9,-,N/A,,Clear,340,2013-08-06 01:50:00
5:50 AM,77.0,50.0,39,29.89,-9999.0,NW,4.6,-,N/A,,Clear,320,2013-08-06 02:50:00
6:20 AM,77.0,51.8,41,29.89,-9999.0,NNW,5.8,-,N/A,,Clear,330,2013-08-06 03:20:00
6:50 AM,78.8,53.6,42,29.89,-9999.0,NW,6.9,-,N/A,,Clear,320,2013-08-06 03:50:00
7:20 AM,78.8,53.6,42,29.89,-9999.0,NNW,8.1,-,N/A,,Clear,330,2013-08-06 04:20:00
7:50 AM,80.6,53.6,39,29.89,-9999.0,NNW,9.2,-,N/A,,Clear,340,2013-08-06 04:50:00
8:20 AM,80.6,51.8,37,29.92,-9999.0,North,12.7,-,N/A,,Clear,350,2013-08-06 05:20:00
8:50 AM,82.4,50.0,32,29.92,-9999.0,North,11.5,25.3,N/A,,Clear,360,2013-08-06 05:50:00
9:20 AM,82.4,50.0,32,29.92,-9999.0,North,12.7,24.2,N/A,,Clear,360,2013-08-06 06:20:00
9:50 AM,84.2,50.0,30,29.89,6.2,North,16.1,27.6,N/A,,Partly Cloudy,350,2013-08-06 06:50:00
10:20 AM,84.2,48.2,29,29.92,6.2,North,15.0,33.4,N/A,,Partly Cloudy,360,2013-08-06 07:20:00
10:50 AM,86.0,48.2,27,29.92,6.2,North,18.4,33.4,N/A,,Partly Cloudy,350,2013-08-06 07:50:00
11:50 AM,87.8,44.6,22,29.92,-9999.0,North,16.1,29.9,N/A,,Clear,360,2013-08-06 08:50:00
12:20 PM,87.8,48.2,25,29.89,-9999.0,NNW,20.7,33.4,N/A,,Clear,340,2013-08-06 09:20:00
12:50 PM,87.8,48.2,25,29.89,-9999.0,North,19.6,35.7,N/A,,Clear,360,2013-08-06 09:50:00
1:20 PM,87.8,48.2,25,29.89,-9999.0,North,21.9,35.7,N/A,,Clear,350,2013-08-06 10:20:00
1:50 PM,87.8,48.2,25,29.89,-9999.0,North,18.4,36.8,N/A,,Clear,350,2013-08-06 10:50:00
2:20 PM,87.8,46.4,24,29.89,-9999.0,North,19.6,33.4,N/A,,Clear,360,2013-08-06 11:20:00
2:50 PM,87.8,44.6,22,29.89,-9999.0,North,19.6,36.8,N/A,,Clear,360,2013-08-06 11:50:00
3:20 PM,89.6,41.0,18,29.89,-9999.0,North,24.2,40.3,N/A,,Clear,360,2013-08-06 12:20:00
3:50 PM,87.8,41.0,19,29.89,-9999.0,North,21.9,38.0,N/A,,Clear,360,2013-08-06 12:50:00
4:20 PM,87.8,42.8,21,29.89,-9999.0,North,21.9,39.1,N/A,,Clear,360,2013-08-06 13:20:00
4:50 PM,87.8,42.8,21,29.89,-9999.0,North,19.6,34.5,N/A,,Clear,360,2013-08-06 13:50:00
5:20 PM,87.8,42.8,21,29.89,-9999.0,North,17.3,32.2,N/A,,Clear,350,2013-08-06 14:20:00
5:50 PM,87.8,42.8,21,29.89,-9999.0,North,16.1,31.1,N/A,,Clear,360,2013-08-06 14:50:00
6:20 PM,86.0,44.6,23,29.89,-9999.0,North,16.1,29.9,N/A,,Clear,360,2013-08-06 15:20:00
6:50 PM,87.8,46.4,24,29.89,-9999.0,North,12.7,24.2,N/A,,Clear,10,2013-08-06 15:50:00
7:20 PM,86.0,48.2,27,29.89,-9999.0,North,12.7,-,N/A,,Clear,10,2013-08-06 16:20:00
7:50 PM,86.0,48.2,27,29.89,-9999.0,North,8.1,20.7,N/A,,Clear,350,2013-08-06 16:50:00
8:20 PM,84.2,48.2,29,29.89,-9999.0,North,8.1,20.7,N/A,,Clear,360,2013-08-06 17:20:00
8:50 PM,84.2,50.0,30,29.89,-9999.0,North,4.6,-,N/A,,Clear,360,2013-08-06 17:50:00
9:20 PM,82.4,50.0,32,29.89,-9999.0,NNW,4.6,-,N/A,,Clear,340,2013-08-06 18:20:00
9:50 PM,82.4,51.8,35,29.89,-9999.0,NNW,6.9,-,N/A,,Clear,330,2013-08-06 18:50:00
10:20 PM,80.6,51.8,37,29.89,-9999.0,NNW,5.8,-,N/A,,Clear,330,2013-08-06 19:20:00
10:50 PM,80.6,53.6,39,29.92,-9999.0,Calm,Calm,-,N/A,,Clear,0,2013-08-06 19:50:00
11:20 PM,80.6,53.6,39,30.06,-9999.0,NNW,5.8,-,N/A,,Clear,330,2013-08-06 20:20:00
11:50 PM,80.6,53.6,39,29.89,-9999.0,NNW,8.1,-,N/A,,Clear,330,2013-08-06 20:50:00